Tracking 30313 objects as of 21-Apr-2025
HD Live streaming from Space Station
objects crossing your sky now

WESTFORD NEEDLES

Track WESTFORD NEEDLES now!
10-day predictions
WESTFORD NEEDLES is classified as:


NORAD ID: 19051
Int'l Code: 1963-014EA
Perigee: 3,373.5 km
Apogee: 3,905.2 km
Inclination: 87.4 °
Period: 166.1 minutes
Semi major axis: 10010 km
RCS: 0.357 m2 (medium)
Launch date: May 9, 1963
Source: United States (US)
Launch site: AIR FORCE WESTERN TEST RANGE (AFWTR)
Your satellite tracking list
Your tracking list is empty




NASA's NSSDC Master Catalog

Two Line Element Set (TLE):
1 19051U 63014EA  25109.18424619 -.00000370  00000-0 -16633+0 0  9992
2 19051  87.3666 192.2583 0265540  31.6440 330.0084  8.66818906406600
Source of the keplerian elements: AFSPC